Weather History for Hollywood, FL

Change the Weather History Date:

Saturday, January 5, 2013

  Actual Average (KFLL) Record (KFLL)
Temperature  
Mean Temperature 73 °F 69 °F  
Max Temperature 80 °F 76 °F 87 °F (1924)
Min Temperature 66 °F 61 °F 36 °F (1953)
Degree Days  
Heating Degree Days 0 2  
Month to date heating degree days 10  
Since 1 July heating degree days 42  
Cooling Degree Days 8 6  
Month to date cooling degree days 30  
Year to date cooling degree days 30  
Growing Degree Days 23 (Base 50)    
Moisture  
Dew Point 67 °F    
Average Humidity 84    
Maximum Humidity 97    
Minimum Humidity 67    
Precipitation  
Precipitation 0.00 in 0.08 in 1.58 in (1942)
Month to date precipitation 0.42  
Year to date precipitation 0.42  
Snow  
Snow 0.00 in - - ()
Month to date snowfall  
Since 1 July snowfall  
Snow Depth -    
Sea Level Pressure  
Sea Level Pressure 30.23 in    
Wind  
Wind Speed 5 mph (NNE)    
Max Wind Speed 12 mph    
Max Gust Speed -    
Visibility 10 miles    
Events      
T = Trace of Precipitation, MM = Missing Value Source: NWS Daily Summary

Daily Weather History Graph

Daily Weather History Graph

Search for Another Location

Airport:

Trip Planner

Search our weather history database for the weather conditions in past years. The results will help you decide how hot, cold, wet, or windy it might be!

Date:

Astronomy

Jan. 05, 2013 Rise Set
Actual Time 7:09 AM EST 5:44 PM EST
Civil Twilight 6:44 AM EST 6:09 PM EST
Nautical Twilight 6:15 AM EST 6:37 PM EST
Astronomical Twilight 5:47 AM EST 7:05 PM EST
Moon 12:33 AM EST (1/5) 12:15 PM EST (1/5)
Length of Visible Light 11h 25m
Length of Day
10h 35m
Last Quarter, 44% of the Moon is Illuminated
Jan 5
Last Quarter
Jan 11
New
Jan 18
First Quarter
Jan 26
Full
Feb 3
Last Quarter

Hourly Weather History & Observations

Time (EST) Temp. Heat Index Dew Point Humidity Pressure Visibility Wind Dir Wind Speed Gust Speed Precip Events Conditions
12:53 AM 70.0 °F - 68.0 °F 93% 30.22 in 10.0 mi Calm Calm - N/A   Clear
1:53 AM 68.0 °F - 66.9 °F 96% 30.21 in 10.0 mi Calm Calm - N/A   Clear
2:53 AM 68.0 °F - 66.0 °F 93% 30.20 in 10.0 mi North 3.5 mph - N/A   Partly Cloudy
3:07 AM 68.0 °F - 66.2 °F 94% 30.20 in 10.0 mi North 3.5 mph - N/A   Mostly Cloudy
3:53 AM 68.0 °F - 66.0 °F 93% 30.21 in 10.0 mi North 6.9 mph - N/A   Mostly Cloudy
4:20 AM 68.0 °F - 66.2 °F 94% 30.20 in 10.0 mi North 9.2 mph - N/A   Overcast
4:53 AM 66.9 °F - 66.0 °F 97% 30.21 in 10.0 mi North 6.9 mph - N/A   Overcast
5:53 AM 68.0 °F - 66.0 °F 93% 30.22 in 10.0 mi North 6.9 mph - N/A   Overcast
6:22 AM 68.0 °F - 66.2 °F 94% 30.23 in 10.0 mi North 4.6 mph - N/A   Overcast
6:53 AM 68.0 °F - 66.0 °F 93% 30.24 in 10.0 mi North 8.1 mph - N/A   Overcast
7:53 AM 68.0 °F - 66.0 °F 93% 30.25 in 10.0 mi North 6.9 mph - N/A   Mostly Cloudy
8:10 AM 68.0 °F - 66.2 °F 94% 30.26 in 10.0 mi North 6.9 mph - N/A   Mostly Cloudy
8:18 AM 69.8 °F - 66.2 °F 88% 30.26 in 10.0 mi North 6.9 mph - N/A   Mostly Cloudy
8:47 AM 69.8 °F - 66.2 °F 88% 30.27 in 10.0 mi North 8.1 mph - N/A   Overcast
8:53 AM 70.0 °F - 66.9 °F 90% 30.27 in 10.0 mi North 8.1 mph - N/A   Overcast
9:05 AM 71.6 °F - 68.0 °F 88% 30.27 in 10.0 mi North 9.2 mph - N/A   Overcast
9:31 AM 71.6 °F - 66.2 °F 83% 30.27 in 10.0 mi North 6.9 mph - N/A   Overcast
9:45 AM 73.4 °F - 68.0 °F 83% 30.27 in 10.0 mi North 8.1 mph - N/A   Overcast
9:53 AM 73.0 °F - 68.0 °F 84% 30.27 in 10.0 mi North 10.4 mph - N/A   Overcast
10:12 AM 73.4 °F - 66.2 °F 78% 30.27 in 10.0 mi NNE 9.2 mph - N/A   Overcast
10:19 AM 73.4 °F - 66.2 °F 78% 30.27 in 10.0 mi NNE 10.4 mph - N/A   Overcast
10:53 AM 75.9 °F - 68.0 °F 76% 30.26 in 10.0 mi NNE 10.4 mph - N/A   Overcast
11:53 AM 79.0 °F - 68.0 °F 69% 30.24 in 10.0 mi NNE 11.5 mph - N/A   Mostly Cloudy
12:08 PM 77.0 °F - 68.0 °F 74% 30.23 in 10.0 mi NNE 10.4 mph - N/A   Mostly Cloudy
12:53 PM 80.1 °F 82.9 °F 69.1 °F 69% 30.21 in 10.0 mi North 8.1 mph - N/A   Mostly Cloudy
1:00 PM 78.8 °F - 68.0 °F 69% 30.20 in 10.0 mi NNE 8.1 mph - N/A   Mostly Cloudy
1:14 PM 78.8 °F - 68.0 °F 69% 30.20 in 10.0 mi NE 5.8 mph - N/A   Mostly Cloudy
1:31 PM 78.8 °F - 68.0 °F 69% 30.19 in 10.0 mi NE 8.1 mph - N/A   Mostly Cloudy
1:53 PM 79.0 °F - 69.1 °F 72% 30.18 in 10.0 mi NE 5.8 mph - N/A   Mostly Cloudy
2:53 PM 80.1 °F 82.7 °F 68.0 °F 67% 30.18 in 10.0 mi East 11.5 mph - N/A   Mostly Cloudy
3:53 PM 78.1 °F - 68.0 °F 71% 30.19 in 10.0 mi East 10.4 mph - N/A   Mostly Cloudy
4:48 PM 75.2 °F - 68.0 °F 78% 30.18 in 10.0 mi East 9.2 mph - N/A   Scattered Clouds
4:53 PM 75.9 °F - 68.0 °F 76% 30.19 in 10.0 mi East 8.1 mph - N/A   Scattered Clouds
5:53 PM 73.9 °F - 68.0 °F 82% 30.20 in 10.0 mi East 8.1 mph - N/A   Clear
6:53 PM 72.0 °F - 66.9 °F 84% 30.21 in 10.0 mi NE 3.5 mph - N/A   Clear
7:53 PM 71.1 °F - 66.9 °F 87% 30.22 in 10.0 mi Calm Calm - N/A   Clear
8:53 PM 70.0 °F - 66.9 °F 90% 30.24 in 10.0 mi North 4.6 mph - N/A   Clear
9:53 PM 69.1 °F - 66.0 °F 90% 30.24 in 10.0 mi NNE 4.6 mph - N/A   Clear
10:53 PM 68.0 °F - 66.0 °F 93% 30.23 in 10.0 mi Calm Calm - N/A   Clear
11:53 PM 68.0 °F - 66.0 °F 93% 30.22 in 10.0 mi Calm Calm - N/A   Clear